RAISE-4

Last updated on Fri Dec 19 2025 00:02:10 GMT+0000 (Coordinated Universal Time)

1 67073U 25297B 25352.60797610 .00003604 00000+0 24330-3 0 9998 2 67073 97.4853 139.9992 0011454 299.4810 60.5274 15.07173130 676
UTC large
Height (km)
Speed (km/s)
/
Latitude / Longitude
Inclination (degrees)
Orbital Period (minutes)
Azimuth
Elevation
Range (km)
Doppler Factor

Next 0 passes for location: London (51.5072 / 0.1276)

Sorry there are no passes over London.